sat.trackr.live / text

‹ back to catalog

SMDC ONE 1.2

NORAD 38759 · 2012-048B

PAYLOAD ACTIVE UNKNOWN

§ Identity

Operator
Country
US
Launch date
2012-09-13
Launch site
AFWTR
Launch vehicle
Mass (kg)
RCS (m²)

External: N2YO · Heavens-Above · Gunter

§ Orbital elements

Epoch: 2026-05-24T15:50:21.220512Z

Period
94.71 min
Inclination
64.6580°
Eccentricity
0.0097306
Mean motion
15.20499243 rev/d
Perigee alt
437.4 km
Apogee alt
571.3 km
Semi-major
6,882.5 km
B*
4.2694e-4
RAAN
254.9412°
Arg perigee
184.6880°
Mean anomaly
175.3346°
Rev number
11,257

§ Raw data

SMDC ONE 1.21 38759U 12048B   26144.65996783  .00010441  00000+0  42694-3 0  99942 38759  64.6580 254.9412 0097306 184.6880 175.3346 15.20499243112574

JSON: /api/v1/satellites/38759 · /tle

For live sub-satellite position, see the globe view (requires WebGL).

§ Visibility from observer

Set your observer location to see the next 7 days of passes ≥ 10°. The values pass through the URL so the page stays shareable.

No JS? Fill the form by hand. The geolocation button needs JavaScript.